Terminal Aerodrome Forecast
Issued by NWS Green Bay, WI

Home | Current Version | Previous Version | Graphics & Text | Print | Product List | Glossary On
Versions: 1 2 3 4 5 6 7 8 9 10 11 12 13 14 15 16 17 18 19 20 21 22 23 24 25 26 27 28 29 30 31 32 33 34 35 36 37 38 39
000
FTUS43 KGRB 011400 AAB
TAFGRB
TAF AMD
KGRB 011436Z 0115/0212 18007KT 4SM -SHRA BR BKN020
     FM011600 20010G16KT 3SM SHRA BKN020 OVC040
     FM011900 24015G22KT P6SM VCSH BKN025 BKN090
     FM020100 27010KT P6SM SCT035 BKN200
     FM020500 27004KT P6SM SCT200=

USA.gov is the U.S. government's official web portal to all federal, state and local government web resources and services.